Find Kuiper-00139

NORAD ID: 65765 Int'l Des: 2025-217 Owner: KUIP Country: US Constellation: amazon-leo operational
LEOCIRCULARSTARLINK_TYPE

現在のビュー

3D地球を読み込み中...

About Kuiper-00139

Kuiper-00139 (NORAD 65765) is a amazon-leo constellation satellite launched Sep 25, 2025 by KUIP of US. It operates in LEO, CIRCULAR, STARLINK_TYPE orbit with a mass of 490.00 kg.

次回通過

Passes for default location (London). Set your location on the main map for personalized predictions.

高度履歴

Loading altitude history...

軌道要素

1 65765U 25217D 26262.68698850 .00001902 00000-0 27847-3 0 9997
2 65765 51.8981 242.7544 0000791 58.1125 301.9914 14.79924984 53923
Epoch: Sep 19, 2026 • Age: 46 hours

現在のステータス

高度 632.5 km
遠地点 / 近地点 N/A
速度 7.55 km/s
衛星直下点 40.30°N, 63.56°E
打ち上げ日 Sep 25, 2025
運用期間 0.9 years
タイプ internet

技術仕様

分類 Payload
質量 490.00 kg
形状 ? Box + 2 pan
製造者 KUIP
バスタイプ Kuiper
フェーズステータス In Orbit
所有者/国 KUIP/US

Most Searched